Flag for China Weather past 2 weeks in Shenzhen, China

Now
81 °F

Partly sunny.


Feels Like: 85 °F
Forecast: 74 / 82 °F
Wind: 6 mph from Southwest

Location: Shenzhen Airport


UV Index: 7 (High)

Visibility: N/A


Pressure: 29.89 "Hg

Humidity: 79%

Dew point: 73 °F

Location of ShenzhenLocation

Historic Weather in Shenzhen

°F

Shenzhen temperature yesterday

Maximum temperature yesterday: 79 °F (at 12:00 PM)
Minimum temperature yesterday: 73 °F (at 12:00 AM)
Average temperature yesterday: 75 °F

Past Weeks' High & Low Weather Summary

 TemperatureHumidityPressure
High82 °F (Apr 13, 12:00 PM)100% (Apr 23, 6:00 AM)30.04 "Hg (Apr 23, 6:00 AM)
Low70 °F (Apr 11, 3:00 AM)45% (Apr 15, 1:00 PM)29.80 "Hg (Apr 12, 5:00 PM)
Average76 °F81%29.89 "Hg
* Reported Apr 10 1:00 PM — Apr 25 1:00 PM, Shenzhen, Weather by CustomWeather, © 2014

Note: Actual official high and low records may vary slightly from our data, if they occured in-between our weather recording intervals... More about our weather records

Advertising

Historic Weather Conditions — Data for Previous 24 hours

 ConditionsComfort  
Time TempWeatherWind HumidityBarometerVisibility
1:00 PM
Apr 25
81 °FPartly sunny.6 mph79%29.89 "HgN/A
12:00 PM81 °FPassing clouds.8 mph79%29.89 "HgN/A
11:00 AM81 °FPassing clouds.8 mph79%29.89 "HgN/A
10:00 AM81 °FSunny.10 mph74%29.89 "Hg10 mi
9:00 AM77 °FSunny.15 mph83%29.89 "Hg10 mi
8:00 AM75 °FPartly sunny.13 mph89%29.89 "Hg5 mi
7:00 AM75 °FPartly sunny.8 mph83%29.86 "Hg5 mi
6:00 AM73 °FPartly sunny.8 mph89%29.86 "Hg5 mi
5:00 AM75 °FPassing clouds.6 mph83%29.83 "Hg5 mi
4:00 AM75 °FPassing clouds.8 mph83%29.83 "Hg4 mi
3:00 AM73 °FClear.10 mph89%29.83 "Hg4 mi
2:00 AM75 °FPassing clouds.10 mph83%29.86 "Hg4 mi
1:00 AM75 °FPassing clouds.10 mph83%29.86 "Hg4 mi
12:00 AM75 °FFog.6 mph83%29.89 "Hg3 mi
11:00 PM
Apr 24
75 °FFog.10 mph78%29.86 "Hg3 mi
10:00 PM75 °FFog.13 mph78%29.86 "Hg3 mi
9:00 PM75 °FFog.10 mph78%29.86 "Hg3 mi
8:00 PM75 °FPassing clouds.10 mph78%29.83 "Hg4 mi
7:00 PM75 °FPassing clouds.10 mph78%29.83 "Hg5 mi
6:00 PM75 °FPartly sunny.10 mph78%29.80 "HgN/A
5:00 PM77 °FPartly sunny.10 mph74%29.80 "HgN/A
4:00 PM77 °FBroken clouds.13 mph79%29.80 "Hg4 mi
3:00 PM77 °FLight rain. Broken clouds.10 mph79%29.80 "Hg4 mi
2:00 PM77 °FBroken clouds.8 mph79%29.86 "Hg4 mi
Weather by CustomWeather, © 2014

See weather overview